Regional Weather Roundup
Issued by NWS Charleston, SC

Current Version | Previous Version | Graphics & Text | Print | Product List | Glossary On
Versions: 1 2 3 4 5 6 7 8 9 10 11 12 13 14 15 16 17 18 19 20 21 22 23 24 25 26 27 28 29 30 31 32 33 34 35 36 37 38 39 40 41 42 43 44 45 46 47 48 49 50
000
ASUS42 KCHS 231127
RWRCHS

REGIONAL WEATHER ROUNDUP
NATIONAL WEATHER SERVICE CHARLESTON SC
700 AM EDT TUE MAY 23 2017

NOTE: "FAIR" INDICATES FEW OR NO CLOUDS BELOW 12,000 FEET WITH NO
SIGNIFICANT WEATHER AND/OR OBSTRUCTIONS TO VISIBILITY.

NOT ALL STATIONS ARE QUALITY CONTROLLED. USE DATA WITH CAUTION...
ESPECIALLY DEWPOINT OBSERVATIONS.

SCZ027-030-031-034>040-042>050-231200-
...SOUTHEAST SOUTH CAROLINA...

CITY           SKY/WX    TMP DP  RH WIND       PRES   REMARKS
N CHARLESTON   CLOUDY    72  70  93 SW6       29.85R
WATERFRONT PRK   N/A     75  73  93 SW6       29.83R
JOHNS ISLAND   FAIR      75  73  94 SW7       29.86R
PINOPOLIS        N/A     70  70 100 CALM      29.76S
MONCKS CORNER  CLOUDY    68  66  94 CALM      29.87R
SUMMERVILLE    CLOUDY    68  68 100 CALM      29.87R
BEAUFORT MCAS  LGT RAIN  73  73 100 SW9       29.86R
BEAUFORT ARPT  LGT RAIN  73  72  94 SW9       29.86S
HILTON HEAD IS NOT AVBL
WALTERBORO     LGT RAIN  68  68 100 CALM      29.87F
ALLENDALE      LGT RAIN  72  70  94 CALM      29.86R

...SOUTHERN MIDLANDS AND PEE DEE...

CITY           SKY/WX    TMP DP  RH WIND       PRES   REMARKS
GEORGETOWN     CLOUDY    70  68  94 CALM      29.87R
KINGSTREE      CLOUDY    68  66  94 CALM      29.86R
ORANGEBURG     CLOUDY    70  69  97 SW5       29.86R FOG
BARNWELL       CLOUDY    72  72 100 CALM      29.86R
AIKEN          RAIN      68  68 100 S3        29.89R
MANNING        CLOUDY    70  70 100 SW3       29.85S
COLUMBIA       CLOUDY    71  69  93 CALM      29.84S FOG
SUMTER         LGT RAIN  70  68  94 S6        29.83S
FLORENCE       CLOUDY    69  69 100 SW3       29.86R FOG
MYRTLE BEACH   MOCLDY    73  70  88 S9        29.85F
N MYRTLE BEACH CLOUDY    73  71  93 S8        29.84F

$$

GAZ063-065-086>088-099>101-113>116-118-119-134>141-150-231200-
...SOUTHEAST GEORGIA...

CITY           SKY/WX    TMP DP  RH WIND       PRES   REMARKS
SAVANNAH ARPT  LGT RAIN  72  69  90 SW8       29.87R
HUNTER AAF     CLOUDY    72  72 100 SW3       29.85S
FORT STEWART   CLOUDY    72  70  94 CALM      29.85S
STATESBORO     RAIN      71  71 100 CALM      29.86F
SYLVANIA       RAIN      72  72 100 CALM      29.87S
CLAXTON        RAIN     N/A N/A N/A CALM      29.88R

...CSRA...CENTRAL AND FAR SOUTHEAST GEORGIA...

CITY           SKY/WX    TMP DP  RH WIND       PRES   REMARKS
THOMSON        CLOUDY    70  69  97 CALM      29.89F
AUGUSTA-BUSH   HVY RAIN  72  70  93 S3        29.85R FOG
AUGUSTA-DANIEL LGT RAIN  71  68  90 S3        29.85F
SWAINSBORO     LGT RAIN  70  70 100 CALM      29.86S
VIDALIA        CLOUDY    72  70  94 CALM      29.87R
EASTMAN        PTSUNNY   71  71 100 CALM      29.88S
HAZLEHURST     CLOUDY    73  73 100 CALM      29.85F
ALMA           MOCLDY    74  72  93 S6        29.86F
WAYCROSS       CLOUDY    76  76 100 S6        29.88S
JESUP          CLOUDY    73  70  88 CALM      29.88S
BAXLEY         LGT RAIN  73  73 100 S3        29.87S
BRUNSWICK      CLOUDY    73  73 100 SW8       29.90R
SAINT SIMONS   PTCLDY    75  71  87 SW13      29.88S

$$

SCZ027-028-034-036>038-045-046-048>050-GAZ119-141-231200-
...LAKE AND SUPPLEMENTAL COASTAL OBSERVATIONS...

STATION/POSITION TIME  TEMP    WIND        PRES    WAVE   SWELL
                       AIR SEA DIR/SP/G            HT/PER HT/PER/DIR
                 (UTC) (F)     (DEG/KT/KT) (MB)    (FT/S) (FT/S/D)
WINYAH BAY       1030   72     190/  3     1011.0S
LAKE MURRAY      1120   71      CALM  /  2 1010.2
ACE BASIN NERRS  1030   72     210/  1     1011.0R
FORT PULASKI     1100   75 80  250/  6/ 10 1011.6
SAPELO ISLAND    1030   74     230/  8     1012.0R

$$

ANZ835-935-AMZ111-154-330-350-352-354-370-450-454-472-231200-
...C-MAN AND BUOY OBSERVATIONS...

STATION/POSITION TIME  TEMP    WIND        PRES    WAVE   SWELL
                       AIR SEA DIR/SP/G            HT/PER HT/PER/DIR
                 (UTC) (F)     (DEG/KT/KT) (MB)    (FT/S) (FT/S/D)
BUOY 41004       1110   77 78  230/ 17/ 21 1011.1
BUOY 41008       1050   77 78  220/ 16/ 17 1011.2R   4/ 5
FOLLY BEACH CMAN 1100   76     230/ 13/ 17 1011.5R
CAPERS NEARSHORE 1108   79 76  230/ 16/ 21 1010.5R
FRIPP NEARSHORE  1108   77 78  230/ 17/ 19 1010.6R


STATION/POSITION TIME  TEMP    WIND        PRES    WAVE   SWELL
                       AIR SEA DIR/SP/G            HT/PER HT/PER/DIR
                 (UTC) (F)     (DEG/KT/KT) (MB)    (FT/S) (FT/S/D)
5E ST. MARYS GA  1100      79                N/A     3/ 5
FRYING PAN BUOY  1110   74 77  210/ 14/ 17 1011.5
BUOY 41025       1050   73 77  170/ 19/ 23 1012.4F   4/ 5
CAPE LOOKOUT NC  1100   72     200/ 14/ 18 1012.1R
BUOY 41002       1050   75 76  180/ 16/ 17 1015.3R   4/ 4   2/ 40/ 8
BUOY 41010       1110   79 79  200/ 14/ 17 1014.3
ST AUGUSTINE FL  1100   72 78  220/  5/  6 1013.8R


$$



USA.gov is the U.S. government's official web portal to all federal, state and local government web resources and services.